EW6618 Weather Reports


Display with metric or nautical units.
time (UTC)temp
F
wind
direction
speed
MPH
gust
MPH
rain 1hr
in
rain 24hr
in
rain mn
in
humidity
%
barometer
mb
20260831114319 69 214 0.0 1.0 0.00 0.00 0.00 89 1012.4
20260831112144 69 143 0.0 2.0 0.00 0.00 0.00 88 1012.5
20260831111119 69 197 0.0 2.0 0.00 0.00 0.00 88 1012.6
20260831105012 69 137 0.0 2.0 0.00 0.00 0.00 88 1012.5
20260831103950 69 128 1.0 3.0 0.00 0.00 0.00 88 1012.6
20260831102919 70 144 0.0 3.0 0.00 0.00 0.00 88 1012.6
20260831101926 70 171 0.0 3.0 0.00 0.00 0.00 88 1012.6
20260831100904 70 241 1.0 3.0 0.00 0.00 0.00 87 1012.6
20260831095928 70 146 1.0 3.0 0.00 0.00 0.00 88 1012.6
20260831094919 70 141 1.0 4.0 0.00 0.00 0.00 87 1012.6
20260831093942 71 139 1.0 5.0 0.00 0.00 0.00 87 1012.5
20260831093000 71 170 1.0 5.0 0.00 0.00 0.00 86 1012.6
20260831091936 70 177 1.0 4.0 0.00 0.00 0.00 86 1012.6
20260831090940 70 93 3.0 8.0 0.00 0.00 0.00 85 1012.6
20260831084746 71 257 1.0 6.0 0.00 0.00 0.00 85 1012.6
20260831083737 70 233 2.0 6.0 0.00 0.00 0.00 85 1012.5
20260831082736 71 6 2.0 5.0 0.00 0.00 0.00 84 1012.4
20260831081716 71 186 3.0 5.0 0.00 0.00 0.00 84 1012.6
20260831080740 71 241 2.0 5.0 0.00 0.00 0.00 84 1012.7
20260831075801 71 260 3.0 6.0 0.00 0.00 0.00 83 1012.6
20260831074824 71 134 3.0 8.0 0.00 0.00 0.00 83 1012.6
20260831073833 71 176 3.0 8.0 0.00 0.00 0.00 82 1012.5
20260831072835 71 122 3.0 7.0 0.00 0.00 0.00 82 1012.4
20260831071845 71 5 4.0 9.0 0.00 0.00 0.00 81 1012.4
20260831070835 71 62 4.0 9.0 0.00 0.00 0.00 80 1012.4
20260831065804 71 56 3.0 6.0 0.00 0.00 0.00 79 1012.2
20260831064812 71 188 3.0 6.0 0.00 0.00 0.00 78 1012.2
20260831063753 71 108 2.0 7.0 0.00 0.00 0.00 79 1012.4
20260831062801 71 130 3.0 8.0 0.00 0.00 0.00 79 1012.4
20260831061752 71 256 3.0 9.0 0.00 0.00 0.00 80 1012.3
20260831060807 70 345 4.0 9.0 0.00 0.00 0.00 82 1012.3
20260831055808 71 45 4.0 8.0 0.00 0.00 0.00 86 1012.4
20260831054812 71 97 2.0 6.0 0.00 0.00 0.00 87 1012.3
20260831052641 71 174 1.0 5.0 0.00 0.00 0.00 87 1012.3
20260831051636 71 90 3.0 9.0 0.00 0.00 0.00 86 1012.2
20260831050643 71 82 5.0 9.0 0.00 0.00 0.00 86 1012.4
20260831045622 71 271 6.0 8.0 0.00 0.00 0.00 87 1012.5
20260831043425 72 224 6.0 10.0 0.00 0.00 0.00 87 1012.3
20260831042418 72 358 6.0 10.0 0.00 0.00 0.00 87 1012.2
20260831041347 72 245 6.0 10.0 0.00 0.00 0.00 86 1012.1
20260831040406 72 243 6.0 10.0 0.00 0.00 0.00 87 1012.0
20260831035422 72 282 6.0 10.0 0.00 0.00 0.00 87 1012.0
20260831034441 72 297 6.0 10.0 0.00 0.00 0.00 87 1011.8
20260831033435 72 255 5.0 9.0 0.00 0.00 0.00 86 1011.6
20260831032440 73 217 5.0 8.0 0.00 0.00 0.00 85 1011.5
20260831031406 73 293 5.0 8.0 0.00 0.00 0.00 83 1011.4
20260831025259 73 44 7.0 11.0 0.00 0.00 0.00 81 1011.1
20260831024255 73 240 8.0 12.0 0.00 0.00 0.00 80 1011.2
20260831023253 73 289 8.0 13.0 0.00 0.00 0.00 78 1011.2
20260831022253 73 296 8.0 13.0 0.00 0.00 0.00 77 1011.2
20260831020129 73 111 6.0 9.0 0.00 0.00 0.00 78 1011.0
20260831015147 74 233 6.0 10.0 0.00 0.00 0.00 78 1011.1
20260831014132 74 302 6.0 10.0 0.00 0.00 0.00 76 1011.0
20260831013145 74 219 6.0 9.0 0.00 0.00 0.00 77 1011.2
20260831012128 74 202 7.0 10.0 0.00 0.00 0.00 78 1011.1
20260831011137 74 253 8.0 11.0 0.00 0.00 0.00 78 1011.3
20260831004956 74 271 9.0 14.0 0.00 0.00 0.00 83 1011.3
20260831003945 74 297 9.0 14.0 0.00 0.00 0.00 82 1011.2
20260831002920 74 288 9.0 14.0 0.00 0.00 0.00 83 1011.1
20260831001904 76 272 9.0 13.0 0.00 0.00 0.00 82 1011.2
20260831000916 76 253 9.0 13.0 0.00 0.00 0.00 82 1011.1
20260830235919 77 265 8.0 13.0 0.00 0.00 0.00 81 1011.2
20260830233804 77 266 8.0 12.0 0.00 0.00 0.00 80 1011.1
20260830232755 77 277 8.0 12.0 0.00 0.00 0.00 82 1011.2
20260830231746 77 346 6.0 11.0 0.00 0.00 0.00 82 1011.2
20260830225552 77 233 7.0 11.0 0.00 0.00 0.00 84 1011.4
20260830224549 78 259 7.0 12.0 0.00 0.00 0.00 82 1011.3
20260830223516 77 293 7.0 12.0 0.00 0.00 0.00 82 1011.6
20260830222537 78 41 8.0 11.0 0.00 0.00 0.00 82 1011.7
20260830221602 78 248 8.0 11.0 0.00 0.00 0.00 80 1011.8
20260830220534 79 276 7.0 11.0 0.00 0.00 0.00 79 1011.8
20260830215558 79 216 7.0 10.0 0.00 0.00 0.00 78 1012.1
20260830214559 79 304 7.0 10.0 0.00 0.00 0.00 79 1012.2
20260830213557 79 208 7.0 11.0 0.00 0.00 0.00 78 1012.4
20260830212545 79 254 7.0 11.0 0.00 0.00 0.00 78 1012.5
20260830211515 80 265 7.0 10.0 0.00 0.00 0.00 77 1012.6
20260830210455 80 237 7.0 12.0 0.00 0.00 0.00 78 1012.7
20260830204350 80 222 7.0 11.0 0.00 0.00 0.00 77 1012.8
20260830203332 80 253 6.0 10.0 0.00 0.00 0.00 76 1012.8
20260830202306 80 247 8.0 10.0 0.00 0.00 0.00 76 1012.8
20260830200124 81 245 7.0 10.0 0.00 0.00 0.00 76 1012.8
20260830195127 81 257 6.0 10.0 0.00 0.00 0.00 75 1012.8
20260830194148 81 297 6.0 9.0 0.00 0.00 0.00 76 1012.8
20260830193138 81 319 6.0 9.0 0.00 0.00 0.00 74 1012.8
20260830191016 81 222 6.0 9.0 0.00 0.00 0.00 75 1013.0
20260830182642 81 268 5.0 9.0 0.00 0.00 0.00 74 1013.0
20260830181621 81 232 5.0 8.0 0.00 0.00 0.00 74 1013.1
20260830180600 80 14 4.0 8.0 0.00 0.00 0.00 74 1013.1
20260830175559 80 222 4.0 7.0 0.00 0.00 0.00 73 1013.0
20260830174558 81 236 4.0 6.0 0.00 0.00 0.00 73 1013.0
20260830173611 81 296 3.0 6.0 0.00 0.00 0.00 74 1013.0
20260830172635 81 60 3.0 5.0 0.00 0.00 0.00 74 1012.9
20260830171641 80 264 3.0 5.0 0.00 0.00 0.00 75 1012.9
20260830170625 79 72 3.0 5.0 0.00 0.00 0.00 76 1012.8
20260830165638 79 247 1.0 4.0 0.00 0.00 0.00 77 1012.7
20260830164642 78 248 1.0 3.0 0.00 0.00 0.00 79 1012.6
20260830163705 77 266 1.0 3.0 0.00 0.00 0.00 80 1012.7
20260830155317 76 277 1.0 3.0 0.00 0.00 0.00 80 1012.6
20260830154301 77 283 0.0 2.0 0.00 0.00 0.00 79 1012.6
20260830153320 77 288 0.0 1.0 0.00 0.00 0.00 79 1012.5
20260830151143 78 252 0.0 3.0 0.00 0.00 0.00 77 1012.6
20260830150146 78 97 0.0 0.0 0.00 0.00 0.00 80 1012.7
20260830144048 75 94 0.0 0.0 0.00 0.00 0.00 85 1012.6
20260830143038 74 94 0.0 0.0 0.00 0.00 0.00 85 1012.4
20260830142017 72 94 0.0 0.0 0.00 0.00 0.00 86 1012.5
20260830141018 71 94 0.0 2.0 0.00 0.00 0.00 86 1012.4
20260830140032 71 92 0.0 2.0 0.00 0.00 0.00 86 1012.3
20260830135010 71 146 0.0 0.0 0.00 0.00 0.00 86 1012.2
20260830133947 71 146 0.0 0.0 0.00 0.00 0.00 86 1012.0
20260830133003 71 146 0.0 0.0 0.00 0.00 0.00 86 1012.0
20260830131943 71 146 0.0 0.0 0.00 0.00 0.00 86 1011.8
20260830130925 71 146 0.0 0.0 0.00 0.00 0.00 86 1011.7
20260830123656 71 146 0.0 0.0 0.00 0.00 0.00 86 1011.6
20260830122718 71 146 0.0 0.0 0.00 0.00 0.00 86 1011.7
20260830121648 71 146 0.0 0.0 0.00 0.00 0.00 86 1011.7
20260830120652 71 146 0.0 0.0 0.00 0.00 0.00 86 1011.5
20260830115704 71 146 0.0 0.0 0.00 0.00 0.00 86 1011.4
20260830114653 71 146 0.0 0.0 0.00 0.00 0.00 86 1011.4